User: anonymous
Location: Ostrava
(49.8330°N, 18.2830°E)
Time: 16:53:21
(UTC+02:00)
Language:

Iridium 7 - Orbit

View from above orbital plane
View from above orbital plane
View from above satellite
View from above satellite

Ground track
Ground track

The orbit data is extracted from the following two-line orbital elements,

1 24793U 97020B   14110.42995622  .00000530  00000-0  18208-3 0  7896
2 24793 086.3956 081.1901 0002254 101.6280 060.3595 14.34214636887820
Epoch (UTC): 20 April 2014 10:19:08
Eccentricity: 0.0002254
inclination: 86.3956°
perigee height: 776 km
apogee height: 779 km
right ascension of ascending node: 81.1901°
argument of perigee: 101.6280°
revolutions per day: 14.34214636
mean anomaly at epoch: 60.3595°
orbit number at epoch: 88782

The dashed part of the orbit path shows where the satellite is in the earth's shadow,  

DLR